Location: Silverdale
(47.6506°N, 122.6941°W)
Time: 05:17:40
(UTC+00:00)

Altair - Pass Details

Date: 04 October 2022
Orbit: 1501 x 1682 km, 47.2° (Epoch: 04 December)

Event Time Altitude Azimuth Distance (km) Brightness Sun altitude
Rises 09:56:58 0° 165° (SSE) 4,720 - -40.0°
Exits shadow 10:02:41 - 138° (SE) 3,870 9.5 -39.3°
Reaches altitude 10° 10:03:51 10° 131° (SE) 3,796 9.5 -39.2°
Maximum altitude 10:05:34 11° 120° (ESE) 3,764 9.6 -39.0°
Drops below altitude 10° 10:07:19 10° 109° (ESE) 3,827 9.8 -38.8°
Sets 10:14:21 0° 76° (ENE) 4,871 10.8 -38.0°
